Adelanto, California, United States (92301)
Lat: 34.58N, Lon: 117.41W
Wx Zone: CAZ060
Local Info
Past Weather Observations for Saturday, September 13, 2014

NOTE: This archive is for the closest National Weather Service station to Adelanto. Information may differ from the station used for current weather conditions.

Click here for Long-term Archive

Time Weather Temperature Dewpoint Humidity Pressure Winds Precip Visibility
23:55
Clear
75°F / 24°C 43°F / 6°C 31% 29.92 in
(1013 mb)
S 5.8 mph
(S 9 kph)
- 10SM
23:35
Clear
75°F / 24°C 43°F / 6°C 31% 29.92 in
(1013 mb)
Calm - 10SM
23:15
Clear
77°F / 25°C 43°F / 6°C 30% 29.92 in
(1013 mb)
Calm - 10SM
22:55
Clear
79°F / 26°C 41°F / 5°C 26% 29.92 in
(1013 mb)
Calm - 10SM
22:35
Clear
81°F / 27°C 43°F / 6°C 26% 29.92 in
(1013 mb)
SW 3.5 mph
(SW 6 kph)
- 10SM
22:15
Clear
79°F / 26°C 43°F / 6°C 28% 29.92 in
(1013 mb)
SSE 5.8 mph
(SSE 9 kph)
- 10SM
21:55
Clear
82°F / 28°C 43°F / 6°C 25% 29.92 in
(1013 mb)
SSE 5.8 mph
(SSE 9 kph)
- 10SM
21:35
Clear
82°F / 28°C 43°F / 6°C 25% 29.92 in
(1013 mb)
SE 8.1 mph
(SE 13 kph)
- 10SM
21:15
Clear
82°F / 28°C 43°F / 6°C 25% 29.92 in
(1013 mb)
Calm - 10SM
20:55
Clear
84°F / 29°C 41°F / 5°C 22% 29.92 in
(1013 mb)
SSW 8.1 mph
(SSW 13 kph)
- 10SM
20:35
Clear
84°F / 29°C 43°F / 6°C 23% 29.89 in
(1012 mb)
W 8.1 mph
(W 13 kph)
- 10SM
20:15
Clear
86°F / 30°C 43°F / 6°C 22% 29.89 in
(1012 mb)
W 9.2 mph
(W 15 kph)
- 10SM
19:55
Clear
88°F / 31°C 43°F / 6°C 21% 29.89 in
(1012 mb)
WNW 11.5 mph
(WNW 19 kph)
- 10SM
19:35
Clear
88°F / 31°C 43°F / 6°C 21% 29.89 in
(1012 mb)
W 8.1 mph
(W 13 kph)
- 10SM
19:15
Clear
90°F / 32°C 43°F / 6°C 20% 29.89 in
(1012 mb)
WNW 10.4 mph
(WNW 17 kph)
- 10SM
18:55
Clear
90°F / 32°C 39°F / 4°C 17% 29.89 in
(1012 mb)
W 9.2 mph
(W 15 kph)
- 10SM
18:35
Clear
91°F / 33°C 36°F / 2°C 14% 29.89 in
(1012 mb)
WNW 4.6 mph
(WNW 7 kph)
- 10SM
18:15
Clear
93°F / 34°C 36°F / 2°C 13% 29.86 in
(1011 mb)
Calm - 10SM
17:55
Clear
93°F / 34°C 36°F / 2°C 13% 29.86 in
(1011 mb)
Calm - 10SM
17:35
Clear
97°F / 36°C 36°F / 2°C 12% 29.86 in
(1011 mb)
Calm - 10SM
17:15
Clear
97°F / 36°C 36°F / 2°C 12% 29.86 in
(1011 mb)
Calm - 10SM
16:55
Clear
97°F / 36°C 36°F / 2°C 12% 29.86 in
(1011 mb)
SE 4.6 mph
(SE 7 kph)
- 10SM
16:35
Clear
97°F / 36°C 36°F / 2°C 12% 29.86 in
(1011 mb)
E 4.6 mph
(E 7 kph)
- 10SM
16:15
Clear
97°F / 36°C 36°F / 2°C 12% 29.86 in
(1011 mb)
SE 6.9 mph
(SE 11 kph)
- 10SM
15:55
Clear
99°F / 37°C 36°F / 2°C 11% 29.86 in
(1011 mb)
E 5.8 mph
(E 9 kph)
- 10SM
15:35
Clear
99°F / 37°C 36°F / 2°C 11% 29.86 in
(1011 mb)
SE 6.9 mph
(SE 11 kph)
- 10SM
15:15
Clear
99°F / 37°C 36°F / 2°C 11% 29.86 in
(1011 mb)
E 10.4 mph
(E 17 kph)
- 10SM
14:55
Clear
97°F / 36°C 36°F / 2°C 12% 29.86 in
(1011 mb)
Calm - 10SM
14:35
Partly Cloudy
99°F / 37°C 36°F / 2°C 11% 29.86 in
(1011 mb)
SE 6.9 mph
(SE 11 kph)
- 10SM
14:15
Clear
97°F / 36°C 36°F / 2°C 12% 29.89 in
(1012 mb)
NW 4.6 mph
(NW 7 kph)
- 10SM
13:55
Clear
97°F / 36°C 36°F / 2°C 12% 29.89 in
(1012 mb)
S 5.8 mph
(S 9 kph)
- 10SM
13:35
Clear
97°F / 36°C 36°F / 2°C 12% 29.89 in
(1012 mb)
Calm - 10SM
13:15
Clear
99°F / 37°C 36°F / 2°C 11% 29.89 in
(1012 mb)
SW 12.7 mph
(SW 20 kph)
- 10SM
12:55
Partly Cloudy
97°F / 36°C 36°F / 2°C 12% 29.92 in
(1013 mb)
Calm - 10SM
12:35
Partly Cloudy
97°F / 36°C 36°F / 2°C 12% 29.92 in
(1013 mb)
Calm - 10SM
12:15
Partly Cloudy
95°F / 35°C 34°F / 1°C 11% 29.92 in
(1013 mb)
Calm - 10SM
11:55
Partly Cloudy
97°F / 36°C 34°F / 1°C 11% 29.92 in
(1013 mb)
E 8.1 mph
(E 13 kph)
- 10SM
11:35
Partly Cloudy
97°F / 36°C 34°F / 1°C 11% 29.95 in
(1014 mb)
NE 5.8 mph
(NE 9 kph)
- 10SM
11:15
Partly Cloudy
95°F / 35°C 34°F / 1°C 11% 29.95 in
(1014 mb)
NNW 3.5 mph
(NNW 6 kph)
- 10SM
10:55
Partly Cloudy
95°F / 35°C 34°F / 1°C 11% 29.95 in
(1014 mb)
N 6.9 mph
(N 11 kph)
- 10SM
10:35
Clear
93°F / 34°C 34°F / 1°C 12% 29.95 in
(1014 mb)
N 6.9 mph
(N 11 kph)
- 10SM
10:15
Clear
91°F / 33°C 34°F / 1°C 13% 29.98 in
(1015 mb)
Calm - 10SM
09:55
Clear
91°F / 33°C 34°F / 1°C 13% 29.98 in
(1015 mb)
Calm - 10SM
09:35
Clear
90°F / 32°C 34°F / 1°C 14% 29.98 in
(1015 mb)
Calm - 10SM
09:15
Clear
88°F / 31°C 34°F / 1°C 15% 29.98 in
(1015 mb)
Calm - 10SM
08:55
Clear
88°F / 31°C 32°F / 0°C 13% 29.98 in
(1015 mb)
Calm - 10SM
08:35
Clear
84°F / 29°C 36°F / 2°C 18% 29.98 in
(1015 mb)
Calm - 10SM
08:15
Clear
82°F / 28°C 37°F / 3°C 20% 29.98 in
(1015 mb)
Calm - 10SM
07:55
Clear
81°F / 27°C 39°F / 4°C 23% 29.98 in
(1015 mb)
S 3.5 mph
(S 6 kph)
- 10SM
07:35
Clear
77°F / 25°C 39°F / 4°C 26% 29.98 in
(1015 mb)
S 3.5 mph
(S 6 kph)
- 10SM
07:15
Clear
75°F / 24°C 39°F / 4°C 27% 29.98 in
(1015 mb)
S 8.1 mph
(S 13 kph)
- 10SM
06:55
Clear
73°F / 23°C 41°F / 5°C 31% 29.98 in
(1015 mb)
SSE 3.5 mph
(SSE 6 kph)
- 10SM
06:35
Clear
72°F / 22°C 41°F / 5°C 33% 29.98 in
(1015 mb)
SSE 6.9 mph
(SSE 11 kph)
- 10SM
06:15
Clear
70°F / 21°C 41°F / 5°C 35% 29.98 in
(1015 mb)
SSE 6.9 mph
(SSE 11 kph)
- 10SM
05:55
Clear
66°F / 19°C 45°F / 7°C 46% 29.98 in
(1015 mb)
S 4.6 mph
(S 7 kph)
- 10SM
05:35
Clear
66°F / 19°C 43°F / 6°C 43% 29.95 in
(1014 mb)
S 5.8 mph
(S 9 kph)
- 10SM
05:15
Clear
66°F / 19°C 43°F / 6°C 43% 29.95 in
(1014 mb)
S 5.8 mph
(S 9 kph)
- 10SM
04:55
Clear
72°F / 22°C 41°F / 5°C 33% 29.95 in
(1014 mb)
S 5.8 mph
(S 9 kph)
- 10SM
04:35
Clear
70°F / 21°C 41°F / 5°C 35% 29.95 in
(1014 mb)
S 5.8 mph
(S 9 kph)
- 10SM
04:15
Clear
70°F / 21°C 41°F / 5°C 35% 29.95 in
(1014 mb)
SSE 5.8 mph
(SSE 9 kph)
- 10SM
03:55
Clear
70°F / 21°C 43°F / 6°C 38% 29.95 in
(1014 mb)
S 6.9 mph
(S 11 kph)
- 10SM
03:35
Clear
72°F / 22°C 43°F / 6°C 36% 29.95 in
(1014 mb)
SSE 6.9 mph
(SSE 11 kph)
- 10SM
03:15
Clear
72°F / 22°C 45°F / 7°C 38% 29.92 in
(1013 mb)
SSE 6.9 mph
(SSE 11 kph)
- 10SM
02:55
Clear
70°F / 21°C 45°F / 7°C 40% 29.92 in
(1013 mb)
S 8.1 mph
(S 13 kph)
- 10SM
02:35
Clear
73°F / 23°C 43°F / 6°C 33% 29.92 in
(1013 mb)
SSE 8.1 mph
(SSE 13 kph)
- 10SM
02:15
Clear
73°F / 23°C 43°F / 6°C 33% 29.92 in
(1013 mb)
SSE 10.4 mph
(SSE 17 kph)
- 10SM
01:55
Clear
72°F / 22°C 43°F / 6°C 36% 29.95 in
(1014 mb)
S 9.2 mph
(S 15 kph)
- 10SM
01:35
Clear
70°F / 21°C 43°F / 6°C 38% 29.95 in
(1014 mb)
S 5.8 mph
(S 9 kph)
- 10SM
01:15
Clear
73°F / 23°C 43°F / 6°C 33% 29.95 in
(1014 mb)
SSE 4.6 mph
(SSE 7 kph)
- 10SM
00:55
Clear
73°F / 23°C 43°F / 6°C 33% 29.95 in
(1014 mb)
SSE 6.9 mph
(SSE 11 kph)
- 10SM
00:35
Clear
72°F / 22°C 43°F / 6°C 36% 29.95 in
(1014 mb)
S 5.8 mph
(S 9 kph)
- 10SM
00:15
Clear
73°F / 23°C 43°F / 6°C 33% 29.95 in
(1014 mb)
S 4.6 mph
(S 7 kph)
- 10SM
Time Weather Temperature Dewpoint Humidity Pressure Winds Precip Visibility


Weather for websites

WeatherForYou.com, LLC is not responsible for any damages or problems caused by this service. Current weather conditions are obtained from the closest station including government and personal stations which may have varying degrees of accuracy. Weather forecasts are derived from the NOAA NDFD. Like all things, this site belongs to Jesus Christ... He just trusts me to maintain it. If you have any questions or comments email webmaster@weatherforyou.com

Copyright © 2014, WeatherForYou.com LLC. All rights reserved.